Regional Weather Roundup
Issued by NWS

Home | Current Version | Previous Version | Graphics & Text | Print | Product List | Glossary On
Versions: 1 2 3 4 5 6 7 8 9 10 11 12 13 14 15 16 17 18 19 20 21 22 23 24 25 26 27 28 29 30 31 32 33 34 35 36 37 38 39 40
000
ASUS45 KBOU 170510
RWRCO

WEATHER ROUNDUP FOR COLORADO
NATIONAL WEATHER SERVICE PUEBLO CO
1000 PM MST FRI FEB 16 2018

NOTE: "FAIR" INDICATES FEW OR NO CLOUDS BELOW 12000 FEET WITH NO
SIGNIFICANT WEATHER AND/OR OBSTRUCTIONS TO VISIBILITY.

COZ001>005-013-030-031-170600-
...NORTHWEST COLORADO...

CITY           SKY/WX    TMP DP  RH WIND       PRES   REMARKS
CRAIG          CLOUDY    20  13  74 NE5       30.03R WCI  13
HAYDEN         CLOUDY    19  12  74 S6        30.03R WCI  11
MEEKER         CLEAR     31  11  43 NW12      30.04R WCI  22
RABBIT EARS PA NOT AVBL
STEAMBOAT SPGS CLOUDY    20  14  77 CALM      30.00R
WALDEN         CLOUDY    21  10  63 W15G22    29.94F WCI   8
$$

COZ006>008-011-170600-
...WEST CENTRAL VALLEYS...

CITY           SKY/WX    TMP DP  RH WIND       PRES   REMARKS
GRAND JUNCTION CLEAR     28  21  75 NE3       30.12R
MONTROSE       CLEAR     26  21  81 S7        30.12F WCI  18
EAGLE          PTCLDY    29  17  61 W10       30.02R WCI  20
RIFLE          CLOUDY    32  18  56 W16       30.08R WCI  21
DELTA          NOT AVBL
NUCLA          FAIR      30  21  69 SE8       30.16S WCI  23
$$

COZ017>023-064>068-170600-
...SOUTHWEST COLORADO...

CITY           SKY/WX    TMP DP  RH WIND       PRES   REMARKS
DURANGO        PTCLDY    27  22  81 N5        30.12S WCI  22
CORTEZ         PTCLDY    25  19  78 E3        30.14R
PAGOSA SPRINGS FAIR      22  20  93 CALM      30.14R
TELLURIDE      CLEAR     24  14  66 SE5       30.14S WCI  18
WOLF CREEK PAS CLOUDY    12  12 100 SW22G30   30.12S WCI  -7
$$

COZ009-010-012-014-032>034-037-058>063-170600-
...CENTRAL COLORADO...

CITY           SKY/WX    TMP DP  RH WIND       PRES   REMARKS
ASPEN          PTCLDY    16  11  80 S7        29.99F WCI   6
BUENA VISTA    FAIR      32   0  25 W22G31    29.93R WCI  19
COPPER MTN     CLOUDY    18   9  68 W18G25    29.93S HAZE    WCI   2
BERTHOUD PASS  LGT SNOW   7  -4  61 W52       29.76F VSB 1   WCI -22
COTTONWOOD PAS CLEAR     30   1  29 W30G51    29.91S WCI  15
GUNNISON       PTCLDY    23  16  74 CALM      30.06F
KREMMLING      CLOUDY    32  12  43 N3        29.97S
LEADVILLE      PTCLDY    19   7  59 W17G28    29.93F WCI   4
MONARCH PASS     N/A     10   9  92 SW38G47   30.07F WCI -14
SALIDA         FAIR      35   6  30 W23G41    30.00S WCI  23
SUNLIGHT       CLOUDY    14  10  85 SW18G28     N/A  WCI  -3
WILKERSON PASS PTCLDY    16  -4  41 SW17G26   29.92S WCI   0
$$

COZ069>075-170600-
...SAN LUIS VALLEY/SANGRE DE CRISTO MOUNTAINS...

CITY           SKY/WX    TMP DP  RH WIND       PRES   REMARKS
ALAMOSA        MOCLDY    25  16  68 SE3       30.04R
DEL NORTE      FAIR      31  14  49 W18       30.05R WCI  19
LA VETA PASS   CLOUDY    23  14  68 S31G46    30.08F WCI   5
SAGUACHE       CLEAR     23   9  54 NW13      30.05R WCI  11
$$

COZ035-036-038>040-170600-
...NORTHERN COLORADO FRONT RANGE...

CITY           SKY/WX    TMP DP  RH WIND       PRES   REMARKS
DENVER INTL AP PTCLDY    40  11  30 W26G36    29.79F
DMNS CITY PARK NOT AVBL
AURORA         PTCLDY    33  20  59 W13       29.81S WCI  23
FRONT RANGE AP FAIR      35  19  52 NW7       29.81F WCI  29
ERIE MUNI ARPT FAIR      41   6  23 W13G22    29.88S
BOULDER MUN AP FAIR      41   7  24 W21G31    29.80S
CENTENNIAL     CLEAR     42   8  24 W12       29.82R
BROOMFIELD     PTCLDY    41   7  24 W20G38    29.82S
LOVELAND       CLEAR     28  18  66 E6        29.82S WCI  22
LONGMONT       FAIR      45   5  20 W17G38    29.81F
$$

COZ041-046-047-076>085-087-088-170600-
...PIKES PEAK/PALMER DIVIDE AND SOUTHERN FOOTHILLS...

CITY           SKY/WX    TMP DP  RH WIND       PRES   REMARKS
COLO. SPRINGS  PTCLDY    33  19  56 E12       29.83S WCI  24
A. F. ACADEMY  CLEAR     40   2  20 W31G45    29.79R
SCHRIEVER AFB  FAIR      28  20  74 N6        29.85R WCI  21
CHEYENNE MTN   NOT AVBL
ELLICOTT         N/A    N/A N/A N/A CALM      29.83R
FALCON         FAIR      34   8  33 MISG      29.84S
FORT CARSON    CLEAR     39   6  25 W10G21    29.81S
LIMON          CLEAR     13  11  92 N7        29.82F WCI   3
MONUMENT HILL  CLEAR     30  10  43 W16       29.82F WCI  19
CANON CITY     CLEAR     43   9  24 W18       29.87R
WALSENBURG     FAIR      45  16  31 W16G24    29.88S
TRINIDAD       CLOUDY    35  19  52 SW6       29.87S WCI  30
$$

COZ042>045-048>051-090-091-170600-
...NORTHEAST COLORADO...

CITY           SKY/WX    TMP DP  RH WIND       PRES   REMARKS
GREELEY ARPT   CLEAR     23  18  81 N5        29.84R WCI  17
AKRON          CLEAR     28  21  75 W12       29.80F WCI  18
BURLINGTON     CLOUDY    30  18  60 S10       29.81F WCI  21
WRAY           CLOUDY    32  21  64 SW3       29.83F
YUMA           NOT AVBL
STERLING       FAIR      28  23  80 N6        29.82S WCI  22
HOLYOKE        FAIR      34  27  75 SW7       29.84S WCI  28
FORT MORGAN    FAIR      29  23  77 W7        29.82S WCI  22
$$

COZ086-089-092>099-170600-
...SOUTHEAST COLORADO...

CITY           SKY/WX    TMP DP  RH WIND       PRES   REMARKS
PUEBLO         PTCLDY    34  26  72 CALM      29.83F
LA JUNTA       CLOUDY    37  25  61 W12       29.84R
LAMAR          CLOUDY    41  22  46 W3        29.82S
SPRINGFIELD      N/A     37  24  59 S16       29.85F
$$





USA.gov is the U.S. government's official web portal to all federal, state and local government web resources and services.